Regional Weather Roundup
Issued by NWS Burlington, VT

Current Version | Previous Version | Text Only | Print | Product List | Glossary On
Versions: 1 2 3 4 5 6 7 8 9 10 11 12 13 14 15 16 17 18 19 20 21 22 23 24 25 26 27 28 29 30 31 32 33 34 35 36 37 38 39 40 41 42 43 44 45 46 47 48 49 50
000 ASUS41 KBTV 200530 RWRBTV VERMONT REGIONAL WEATHER ROUNDUP NATIONAL WEATHER SERVICE BURLINGTON VT 100 AM EDT SAT SEP 20 2014 NOTE: "FAIR" INDICATES FEW OR NO CLOUDS BELOW 12,000 FEET WITH NO SIGNIFICANT WEATHER AND/OR OBSTRUCTIONS TO VISIBILITY. * THESE REPORTS ARE NOT UNDER NWS QUALITY CONTROL AND/OR DO NOT REPORT WEATHER SUCH AS PRECIPITATION AND FOG. VTZ001>019-200600- _____VERMONT_____ CITY SKY/WX TMP DP RH WIND PRES REMARKS BURLINGTON CLEAR 49 36 61 S9 30.26F MONTPELIER CLEAR 42 35 76 S5 30.33S MORRISVILLE CLEAR 34 31 88 CALM 30.30S ST. JOHNSBURY* N/A 38 34 85 MISG 30.31R MIDDLEBURY* FAIR 44 38 80 CALM 30.28S RUTLAND* MOCLDY 45 36 70 SE14 30.31S SPRINGFIELD CLEAR 35 34 96 CALM 30.38R HIGHGATE* FAIR 51 36 55 S9 30.22S NEWPORT* FAIR 41 33 74 S8 30.27F BENNINGTON CLEAR 48 37 65 VRB5 30.31S SUTTON* N/A 39 N/A N/A MISG N/A MT. MANSFIELD* N/A 39 N/A N/A W24G40 N/A _____LAKE CHAMPLAIN_____ CITY SKY/WX TMP DP RH WIND PRES REMARKS BURTON ISLAND* N/A 54 43 66 SE24 N/A COLCHESTER RF* N/A 54 43 66 S30 N/A DIAMOND ISL* N/A 48 39 71 SE16 N/A $$ NYZ007-026>031-035-052-083-200600- _____NORTHERN NEW YORK_____ CITY SKY/WX TMP DP RH WIND PRES REMARKS PLATTSBURGH CLEAR 39 36 89 CALM 30.22F SARANAC LAKE CLEAR 30 28 92 CALM 30.19F MASSENA PTCLDY 38 37 97 CALM 30.16F OGDENSBURG* CLEAR 45 43 93 S5 30.12F POTSDAM* CLEAR 54 45 71 S12G21 30.14F WATERTOWN PTCLDY 59 45 59 S9G17 30.13F FT DRUM PTCLDY 50 41 72 SE14 30.15S ALBANY PTCLDY 51 41 68 S12G20 30.31S GLENS FALLS CLOUDY 40 37 89 S3 30.30S $$ NHZ002-005-011-200600- _____NEW HAMPSHIRE_____ CITY SKY/WX TMP DP RH WIND PRES REMARKS LEBANON CLEAR 36 33 89 CALM 30.35R KEENE CLEAR 37 28 70 CALM 30.39S MT WASHINGTON PTCLDY 30 27 86 W37 N/A WCI 14 PLYMOUTH FAIR 32 32 100 CALM 30.39R WHITEFIELD CLEAR 30 27 88 CALM 30.32F $$ _____REGIONAL QUEBEC LOCATIONS_____ CITY SKY/WX TMP DP RH WIND PRES REMARKS MONTREAL MOCLDY 48 36 61 SE12 30.18F QUEBEC CITY MOCLDY 39 34 81 CALM 30.23F SHERBROOKE CLEAR 34 32 93 SE5 30.26S _____REGIONAL ONTARIO LOCATIONS_____ CITY SKY/WX TMP DP RH WIND PRES REMARKS OTTAWA MOCLDY 43 37 81 SE5 30.12F ______KEY______ VSB - VISIBILITY IN MILES WCI - WIND CHILL INDEX HX - HEAT INDEX $$

USA.gov is the U.S. government's official web portal to all federal, state and local government web resources and services.